Location: Davayat
(45.9471°N, 3.1105°E)
Time: 17:11:26
(UTC+00:00)

Cosmos 44 Rocket - Pass Details

Date: 01 December 2020
Orbit: 639 x 751 km, 65.1° (Epoch: 22 January)

Event Time Altitude Azimuth Distance (km) Brightness Sun altitude
Rises 17:35:15 0° 327° (NNW) 3,164 6.9 -15.3°
Reaches altitude 10° 17:37:44 10° 334° (NNW) 2,252 6.1 -15.7°
Maximum altitude 17:42:39 43° 46° (NE) 1,041 3.8 -16.6°
Enters shadow 17:45:11 26° 102° (ESE) 1,464 4.4 -17.0°
